QPF
0.00 0.00 0.00 0.00 0.00 0.00 0.00 0.00 0.00 0.00 0.00 0.00 0.00 0.00 0.00 0.00 0.00 0.00 0.00 0.00 0.00 0.00 0.00 0.00 0.00 0.00 0.00 0.00 0.00 0.00 0.00 0.00 0.00 0.00 0.00 0.00 0.00 0.00 0.00 0.00 0.00 0.00 0.00
0.00 0.00 0.00 0.00 0.00 0.00 0.00 0.00 0.00 0.00 0.00 0.00 0.00 0.00 0.00 0.00 0.00 0.00 0.00 0.00 0.00 0.00 0.00 0.00 0.00 0.00 0.00 0.00 0.00 0.00 0.00 0.00 0.00 0.00 0.00 0.00 0.00 0.00 0.00 0.00 0.00 0.00 0.00
0.00 0.00 0.00 0.00 0.00 0.00 0.00 0.00 0.00 0.00 0.00 0.00 0.00 0.00 0.00 0.00 0.00 0.00 0.00 0.00 0.00 0.00 0.00 0.00 0.00 0.00 0.00 0.00 0.00 0.00 0.00 0.00 0.00 0.00 0.00 0.00 0.00 0.00 0.00 0.00 0.00 0.00 0.00
0.00 0.00 0.00 0.00 0.00 0.00 0.00 0.00 0.00 0.00 0.00 0.00 0.00 0.00 0.00 0.00 0.00 0.00 0.00 0.00 0.00 0.00 0.00 0.00 0.00 0.00 0.00 0.00 0.00 0.00 0.00 0.00 0.00 0.00 0.00 0.00 0.00 0.00 0.00 0.00 0.00 0.00 0.00
0.00 0.00 0.00 0.00 0.00 0.00 0.00 0.00 0.00 0.00 0.00 0.00 0.00 0.00 0.00 0.00 0.00 0.00 0.00 0.00 0.00 0.00 0.00 0.00 0.00 0.00 0.00 0.00 0.00 0.00 0.00 0.00 0.00 0.00 0.00 0.00 0.00 0.00 0.00 0.00 0.00 0.00 0.00
0.00 0.00 0.00 0.00 0.00 0.00 0.00 0.00 0.00 0.00 0.00 0.00 0.00 0.00 0.00 0.00 0.00 0.00 0.00 0.00 0.00 0.00 0.00 0.00 0.00 0.00 0.00 0.00 0.00 0.00 0.00 0.00 0.00 0.00 0.00 0.00 0.00 0.00 0.00 0.00 0.00 0.00 0.00
0.00 0.00 0.00 0.00 0.00 0.00 0.00 0.00 0.00 0.00 0.00 0.00 0.00 0.00 0.00 0.00 0.00 0.00 0.00 0.00 0.00 0.00 0.00 0.00 0.00 0.00 0.00 0.00 0.00 0.00 0.00 0.00 0.00 0.00 0.00 0.00 0.00 0.00 0.00 0.00 0.00 0.00 0.00
0.00 0.00 0.00 0.00 0.00 0.00 0.00 0.00 0.00 0.00 0.00 0.00 0.00 0.00 0.00 0.00 0.00 0.00 0.00 0.00 0.00 0.00 0.00 0.00 0.00 0.00 0.00 0.00 0.00 0.00 0.00 0.00 0.00 0.00 0.00 0.00 0.00 0.00 0.00 0.01 0.01 0.01 0.00
0.00 0.00 0.00 0.00 0.00 0.00 0.00 0.00 0.00 0.00 0.00 0.00 0.00 0.00 0.00 0.00 0.00 0.00 0.00 0.00 0.00 0.00 0.00 0.00 0.00 0.00 0.00 0.00 0.00 0.00 0.00 0.00 0.00 0.00 0.00 0.00 0.00 0.00 0.00 0.00 0.00 0.00 0.00
0.00 0.00 0.00 0.00 0.00 0.00 0.00 0.00 0.00 0.00 0.00 0.00 0.00 0.00 0.00 0.00 0.00 0.00 0.00 0.00 0.00 0.00 0.00 0.00 0.00 0.00 0.00 0.00 0.00 0.00 0.00 0.00 0.00 0.00 0.00 0.00 0.00 0.00 0.00 0.00 0.00 0.00 0.00
0.00 0.00 0.00 0.00 0.00 0.00 0.00 0.00 0.00 0.00 0.00 0.00 0.00 0.00 0.00 0.00 0.00 0.00 0.00 0.00 0.00 0.00 0.00 0.00 0.00 0.00 0.00 0.00 0.00 0.01 0.00 0.00 0.01 0.00 0.00 0.00 0.00 0.00 0.00 0.00 0.00 0.00 0.00
0.00 0.00 0.00 0.00 0.00 0.00 0.00 0.00 0.00 0.00 0.00 0.00 0.00 0.00 0.00 0.00 0.00 0.00 0.00 0.00 0.00 0.00 0.00 0.00 0.00 0.00 0.00 0.00 0.00 0.00 0.01 0.01 0.00 0.00 0.00 0.00 0.00 0.00 0.00 0.00 0.00 0.00 0.00
0.00 0.00 0.00 0.00 0.00 0.00 0.00 0.00 0.00 0.00 0.00 0.00 0.00 0.00 0.00 0.00 0.00 0.00 0.00 0.00 0.00 0.00 0.00 0.00 0.00 0.00 0.00 0.00 0.00 0.00 0.00 0.00 0.00 0.00 0.00 0.00 0.00 0.00 0.00 0.00 0.00 0.00 0.00
0.00 0.00 0.00 0.00 0.00 0.00 0.00 0.00 0.00 0.00 0.00 0.00 0.00 0.00 0.00 0.00 0.00 0.00 0.00 0.00 0.00 0.00 0.00 0.00 0.00 0.00 0.00 0.00 0.00 0.00 0.00 0.00 0.00 0.00 0.00 0.00 0.00 0.00 0.00 0.00 0.00 0.00 0.00
0.00 0.00 0.00 0.00 0.00 0.00 0.00 0.01 0.00 0.00 0.00 0.00 0.00 0.00 0.00 0.00 0.00 0.00 0.00 0.00 0.00 0.00 0.00 0.00 0.00 0.00 0.00 0.00 0.00 0.00 0.00 0.00 0.00 0.00 0.00 0.00 0.00 0.00 0.00 0.00 0.00 0.00 0.00
0.00 0.00 0.00 0.00 0.00 0.00 0.00 0.00 0.00 0.00 0.00 0.00 0.00 0.00 0.00 0.00 0.00 0.00 0.00 0.00 0.00 0.00 0.00 0.00 0.00 0.00 0.00 0.00 0.00 0.00 0.00 0.00 0.00 0.00 0.00 0.00 0.00 0.00 0.00 0.00 0.00 0.00 0.00
0.00 0.00 0.00 0.00 0.00 0.00 0.00 0.01 0.01 0.00 0.00 0.00 0.00 0.00 0.00 0.00 0.00 0.00 0.00 0.00 0.00 0.00 0.00 0.00 0.00 0.00 0.00 0.00 0.00 0.00 0.00 0.00 0.00 0.00 0.00 0.00 0.00 0.00 0.00 0.00 0.00 0.00 0.00
0.00 0.00 0.00 0.00 0.00 0.00 0.00 0.01 0.01 0.00 0.00 0.00 0.00 0.00 0.00 0.00 0.00 0.00 0.00 0.00 0.00 0.00 0.00 0.00 0.00 0.00 0.00 0.00 0.00 0.00 0.00 0.00 0.00 0.00 0.00 0.00 0.00 0.00 0.00 0.00 0.00 0.00 0.01
0.00 0.00 0.00 0.00 0.00 0.01 0.01 0.01 0.01 0.00 0.00 0.00 0.00 0.02 0.03 0.02 0.01 0.00 0.00 0.00 0.00 0.00 0.00 0.00 0.00 0.00 0.00 0.00 0.00 0.00 0.00 0.00 0.00 0.00 0.00 0.00 0.00 0.00 0.00 0.00 0.00 0.00 0.00
0.00 0.00 0.01 0.02 0.02 0.01 0.02 0.02 0.01 0.01 0.00 0.00 0.00 0.02 0.04 0.05 0.03 0.00 0.00 0.00 0.00 0.00 0.00 0.00 0.00 0.00 0.00 0.00 0.00 0.00 0.00 0.00 0.00 0.00 0.00 0.00 0.00 0.00 0.00 0.00 0.00 0.00 0.00
0.00 0.00 0.00 0.01 0.01 0.01 0.02 0.01 0.01 0.01 0.01 0.01 0.00 0.01 0.02 0.03 0.01 0.00 0.00 0.00 0.00 0.00 0.00 0.00 0.00 0.00 0.00 0.00 0.00 0.00 0.00 0.00 0.00 0.00 0.00 0.00 0.00 0.00 0.00 0.00 0.00 0.00 0.00
0.00 0.00 0.00 0.01 0.01 0.01 0.02 0.01 0.02 0.03 0.02 0.01 0.01 0.02 0.06 0.05 0.01 0.00 0.00 0.00 0.00 0.00 0.00 0.00 0.00 0.00 0.00 0.00 0.00 0.00 0.00 0.00 0.00 0.00 0.00 0.00 0.00 0.00 0.00 0.00 0.00 0.00 0.00
0.00 0.00 0.00 0.01 0.01 0.02 0.02 0.01 0.01 0.02 0.02 0.01 0.01 0.01 0.07 0.04 0.00 0.00 0.00 0.00 0.00 0.00 0.00 0.00 0.00 0.00 0.00 0.00 0.00 0.00 0.00 0.00 0.00 0.00 0.00 0.00 0.00 0.00 0.00 0.00 0.00 0.00 0.00
0.00 0.00 0.00 0.01 0.01 0.02 0.01 0.01 0.02 0.02 0.02 0.02 0.02 0.03 0.02 0.00 0.00 0.00 0.00 0.00 0.00 0.00 0.00 0.00 0.00 0.00 0.00 0.00 0.00 0.00 0.00 0.00 0.01 0.01 0.00 0.00 0.00 0.00 0.00 0.00 0.00 0.00 0.00
0.00 0.00 0.00 0.00 0.01 0.02 0.02 0.02 0.02 0.01 0.01 0.02 0.02 0.01 0.01 0.02 0.01 0.00 0.00 0.00 0.00 0.00 0.00 0.00 0.00 0.00 0.00 0.00 0.00 0.00 0.00 0.00 0.00 0.01 0.01 0.00 0.00 0.00 0.00 0.00 0.00 0.00 0.00
0.00 0.00 0.00 0.00 0.01 0.01 0.01 0.01 0.01 0.01 0.02 0.02 0.01 0.01 0.02 0.01 0.00 0.00 0.00 0.00 0.00 0.00 0.00 0.00 0.00 0.00 0.00 0.00 0.00 0.00 0.00 0.00 0.00 0.01 0.03 0.00 0.00 0.00 0.00 0.00 0.00 0.00 0.00
MSLP
1026.71 1026.71 1026.63 1026.58 1026.53 1026.40 1026.38 1026.35 1026.30 1026.38 1026.39 1026.33 1026.41 1026.44 1026.41 1026.36 1026.31 1026.27 1026.30 1026.15 1026.24 1025.99 1025.97 1025.90 1025.97 1025.83 1025.96 1025.96 1026.02 1025.91 1026.11 1026.27 1026.30 1025.70 1025.21 1025.20 1024.91 1024.56 1023.99 1023.65 1023.23 1022.81 1022.58
1026.58 1026.66 1026.79 1026.78 1026.73 1026.60 1026.46 1026.32 1026.26 1026.48 1026.56 1026.57 1026.45 1026.50 1026.45 1026.43 1026.43 1026.61 1026.45 1026.28 1026.27 1026.15 1026.11 1026.09 1026.07 1025.79 1026.00 1026.08 1026.03 1026.01 1026.21 1026.03 1026.43 1026.04 1025.39 1025.22 1025.03 1024.70 1024.33 1023.65 1023.12 1022.76 1022.24
1026.31 1026.48 1026.66 1026.71 1026.72 1026.61 1026.50 1026.40 1026.27 1026.36 1026.48 1026.54 1026.49 1026.52 1026.52 1026.46 1026.45 1026.48 1026.37 1026.34 1026.40 1026.27 1026.15 1026.17 1026.11 1025.97 1025.95 1025.91 1025.98 1025.99 1025.90 1025.88 1025.88 1025.88 1025.35 1025.18 1024.71 1024.54 1023.86 1023.43 1022.96 1022.59 1022.01
1026.01 1026.20 1026.36 1026.41 1026.46 1026.53 1026.57 1026.59 1026.54 1026.51 1026.67 1026.61 1026.49 1026.39 1026.35 1026.28 1026.28 1026.35 1026.35 1026.38 1026.39 1026.24 1026.14 1025.95 1025.83 1025.83 1025.74 1025.63 1025.77 1025.53 1025.48 1025.87 1025.80 1025.66 1025.42 1025.22 1024.78 1024.23 1023.89 1023.60 1022.79 1022.59 1021.87
1025.91 1026.11 1026.08 1026.01 1026.14 1026.27 1026.38 1026.43 1026.46 1026.43 1026.58 1026.67 1026.57 1026.50 1026.48 1026.33 1026.18 1026.25 1026.31 1026.26 1026.25 1026.21 1026.17 1025.81 1025.52 1025.47 1025.20 1025.09 1024.97 1025.07 1025.16 1025.49 1025.45 1025.17 1025.33 1025.03 1024.59 1024.23 1023.90 1023.53 1023.01 1022.33 1021.63
1025.66 1025.71 1025.51 1025.64 1025.81 1026.03 1026.20 1026.29 1026.34 1026.33 1026.49 1026.66 1026.51 1026.44 1026.41 1026.19 1025.85 1025.64 1025.86 1026.14 1026.20 1026.23 1025.99 1025.56 1025.47 1025.14 1025.06 1024.82 1024.60 1024.45 1024.46 1024.78 1024.76 1024.89 1024.85 1024.62 1024.37 1024.10 1023.60 1023.51 1023.04 1022.46 1021.60
1025.66 1025.41 1025.32 1025.27 1025.39 1025.55 1025.75 1026.03 1026.19 1026.29 1026.43 1026.47 1026.47 1026.42 1026.25 1026.04 1025.71 1025.46 1025.50 1025.72 1025.83 1025.78 1025.59 1025.42 1025.16 1024.73 1024.83 1024.94 1024.75 1024.54 1024.56 1024.53 1024.46 1024.56 1024.55 1024.41 1024.07 1023.87 1023.47 1023.20 1022.86 1022.41 1021.72
1025.53 1025.38 1025.14 1025.13 1025.19 1025.15 1025.44 1025.71 1025.88 1026.11 1026.22 1026.24 1026.18 1026.15 1026.06 1025.78 1025.35 1025.11 1025.06 1025.33 1025.51 1025.49 1025.35 1025.16 1024.98 1024.91 1024.92 1024.61 1024.50 1024.48 1024.59 1024.70 1024.66 1024.43 1024.12 1023.83 1023.64 1023.45 1023.33 1022.90 1022.58 1022.13 1021.47
1025.23 1025.10 1024.87 1024.71 1024.80 1024.95 1025.28 1025.35 1025.47 1025.76 1025.87 1025.81 1025.72 1025.88 1025.87 1025.64 1025.14 1024.87 1024.97 1025.27 1025.38 1025.32 1025.17 1025.01 1024.91 1024.75 1024.53 1024.12 1024.04 1024.46 1024.48 1024.35 1024.08 1023.80 1023.56 1023.41 1023.25 1023.07 1022.93 1022.74 1022.55 1022.20 1021.15
1025.09 1024.71 1024.36 1024.17 1024.26 1024.48 1024.49 1024.63 1024.83 1025.05 1025.12 1025.33 1025.39 1025.31 1025.30 1025.30 1024.96 1024.63 1024.67 1025.00 1025.30 1025.30 1025.17 1024.92 1024.73 1024.60 1024.31 1024.08 1024.07 1024.35 1024.23 1024.13 1024.07 1023.87 1023.66 1023.72 1023.60 1023.42 1023.00 1022.90 1022.65 1022.11 1021.63
1024.90 1024.49 1024.13 1023.85 1023.76 1023.65 1023.73 1024.00 1024.14 1024.39 1024.54 1024.81 1024.86 1024.77 1024.83 1024.95 1025.01 1024.36 1024.19 1024.49 1024.92 1025.23 1025.15 1025.07 1024.98 1024.79 1024.52 1024.21 1023.89 1024.08 1024.05 1023.83 1023.76 1023.82 1023.67 1023.55 1023.28 1023.10 1022.91 1022.67 1022.46 1022.28 1021.78
1024.86 1024.43 1024.02 1023.74 1023.47 1023.14 1023.27 1023.37 1023.61 1023.84 1023.98 1024.07 1024.21 1024.21 1024.21 1024.28 1023.97 1024.05 1023.74 1023.73 1024.36 1024.65 1025.21 1025.01 1024.99 1024.65 1024.33 1024.08 1024.24 1023.95 1024.01 1023.98 1023.95 1023.82 1023.56 1023.27 1023.10 1023.04 1022.83 1022.45 1022.07 1021.72 1021.27
1024.75 1024.35 1023.94 1023.55 1023.18 1022.86 1022.80 1022.86 1023.10 1023.21 1023.31 1023.38 1023.48 1023.45 1023.37 1023.44 1023.49 1023.14 1023.12 1023.13 1023.22 1024.04 1024.60 1024.92 1024.52 1024.55 1024.68 1024.90 1024.39 1024.44 1024.64 1024.58 1024.34 1024.04 1023.79 1023.48 1023.42 1022.93 1022.49 1022.01 1021.49 1020.96 1020.33
1024.76 1024.14 1023.59 1023.05 1022.64 1022.26 1021.84 1021.66 1022.01 1022.22 1022.38 1022.43 1022.49 1022.42 1022.48 1022.64 1022.84 1022.84 1022.67 1022.71 1023.14 1023.75 1024.45 1025.32 1024.97 1024.85 1024.84 1025.12 1025.27 1025.75 1025.58 1025.13 1024.94 1024.82 1024.46 1023.99 1023.31 1022.59 1022.21 1021.94 1021.29 1020.65 1020.01
1024.45 1023.85 1023.20 1022.53 1022.11 1021.65 1021.25 1020.96 1021.02 1020.85 1020.91 1021.03 1021.15 1021.31 1021.56 1021.71 1021.61 1021.85 1022.23 1022.64 1022.95 1023.53 1024.60 1025.43 1025.48 1025.93 1026.14 1026.16 1026.05 1026.04 1025.87 1025.57 1025.42 1025.23 1024.84 1024.20 1023.44 1022.81 1022.41 1021.99 1021.39 1020.62 1020.02
1023.99 1023.28 1022.78 1022.20 1021.65 1021.12 1020.60 1020.01 1019.59 1019.54 1019.72 1019.74 1019.96 1020.36 1020.44 1020.45 1020.59 1020.89 1021.40 1022.02 1022.53 1022.88 1024.38 1025.59 1026.03 1026.47 1026.64 1026.87 1026.92 1026.99 1026.12 1025.74 1025.55 1025.38 1025.07 1024.70 1024.27 1023.61 1022.83 1022.04 1021.67 1020.89 1019.97
1023.44 1022.76 1022.17 1021.64 1021.23 1020.74 1020.26 1019.79 1019.19 1018.60 1018.33 1018.65 1018.77 1018.96 1019.18 1019.65 1019.68 1020.08 1020.57 1021.48 1022.19 1022.82 1024.03 1024.99 1025.65 1026.18 1026.60 1027.00 1027.11 1026.99 1026.96 1025.94 1025.68 1025.29 1025.19 1024.88 1024.48 1023.95 1023.14 1022.54 1021.92 1021.18 1020.16
1022.84 1021.98 1021.36 1020.94 1020.52 1019.98 1019.51 1019.05 1018.69 1018.15 1017.95 1017.82 1017.80 1017.89 1018.24 1018.63 1018.99 1019.48 1020.41 1021.35 1022.31 1022.74 1023.67 1024.44 1025.12 1025.70 1026.31 1026.62 1026.45 1026.55 1026.23 1025.81 1025.48 1025.23 1025.02 1024.73 1024.44 1024.21 1023.38 1022.74 1022.06 1021.33 1020.36
1022.15 1021.39 1020.66 1020.07 1019.52 1018.98 1018.51 1018.16 1017.90 1017.51 1017.43 1017.44 1017.57 1017.53 1017.66 1018.12 1018.63 1019.51 1020.23 1021.44 1022.23 1022.89 1023.44 1023.95 1024.43 1024.90 1025.27 1025.55 1025.71 1025.82 1025.85 1025.64 1025.23 1025.15 1024.76 1024.52 1024.20 1024.05 1023.34 1022.65 1021.98 1021.00 1019.87
1021.36 1020.47 1019.52 1018.94 1018.44 1017.88 1017.38 1017.05 1016.95 1016.83 1017.03 1017.20 1017.37 1017.46 1017.58 1017.87 1018.56 1019.51 1020.39 1021.20 1022.03 1022.71 1023.19 1023.54 1023.95 1024.32 1024.71 1025.07 1025.24 1025.37 1025.40 1025.28 1025.09 1024.85 1024.46 1024.23 1023.86 1023.46 1023.14 1022.40 1021.54 1020.55 1019.58
1020.78 1020.05 1019.11 1018.40 1017.84 1017.05 1016.46 1016.20 1016.06 1016.19 1016.56 1016.85 1017.09 1017.30 1017.44 1017.75 1018.77 1019.63 1020.42 1021.14 1021.74 1022.32 1022.94 1023.26 1023.55 1023.84 1024.13 1024.50 1024.81 1025.07 1025.17 1025.03 1024.76 1024.47 1024.14 1023.77 1023.43 1023.16 1022.29 1021.72 1021.04 1020.12 1019.40
1020.45 1019.77 1018.99 1018.06 1017.09 1016.43 1016.21 1016.07 1015.95 1016.05 1016.29 1016.61 1016.95 1017.11 1017.12 1018.21 1019.01 1019.81 1020.47 1020.99 1021.48 1022.03 1022.46 1023.01 1023.17 1023.38 1023.62 1023.89 1024.20 1024.55 1024.69 1024.55 1024.19 1023.85 1023.54 1023.19 1022.93 1022.53 1021.90 1021.29 1020.59 1019.83 1019.11
1020.16 1019.63 1018.81 1017.87 1016.99 1016.30 1015.98 1015.98 1016.05 1016.14 1016.37 1016.69 1016.96 1017.15 1017.33 1018.27 1019.01 1019.80 1020.45 1020.97 1021.36 1021.89 1022.30 1022.79 1023.03 1023.18 1023.34 1023.45 1023.58 1023.80 1024.05 1023.84 1023.42 1023.26 1022.96 1022.64 1022.46 1022.13 1021.43 1021.06 1020.42 1019.82 1019.03
1020.22 1019.67 1018.95 1018.04 1017.19 1016.48 1016.24 1016.16 1016.20 1016.31 1016.56 1016.87 1017.16 1017.49 1018.03 1018.57 1019.10 1019.70 1020.39 1020.87 1021.35 1021.80 1022.19 1022.49 1022.81 1022.93 1023.01 1023.16 1023.16 1023.16 1023.12 1022.95 1022.69 1022.21 1021.89 1021.91 1021.95 1021.63 1021.14 1020.67 1020.30 1019.90 1019.18
1020.35 1019.87 1019.20 1018.44 1017.58 1016.95 1016.56 1016.53 1016.51 1016.59 1016.81 1017.05 1017.34 1017.72 1018.21 1018.74 1019.24 1019.77 1020.33 1020.86 1021.31 1021.69 1021.98 1022.21 1022.39 1022.53 1022.54 1022.58 1022.58 1022.43 1022.22 1021.69 1021.11 1020.63 1020.62 1021.45 1021.53 1021.07 1020.75 1020.55 1020.16 1019.82 1019.06
1020.51 1020.14 1019.61 1018.92 1018.19 1017.50 1017.20 1017.06 1017.04 1017.07 1017.19 1017.35 1017.59 1017.91 1018.30 1018.81 1019.31 1019.79 1020.37 1020.91 1021.27 1021.53 1021.74 1021.86 1021.98 1022.08 1022.08 1022.00 1021.88 1021.65 1021.13 1020.59 1020.41 1020.02 1020.28 1020.87 1021.00 1020.71 1020.53 1020.20 1020.10 1019.70 1019.26
Thickness
5363 5369 5377 5382 5387 5394 5399 5405 5411 5415 5420 5425 5430 5435 5440 5446 5452 5457 5462 5468 5471 5478 5483 5487 5491 5495 5497 5501 5504 5509 5510 5513 5516 5522 5529 5531 5536 5540 5545 5549 5553 5559 5562
5350 5354 5358 5364 5370 5376 5382 5388 5393 5398 5403 5408 5413 5417 5423 5428 5433 5437 5443 5449 5454 5460 5465 5469 5473 5480 5481 5484 5488 5492 5493 5498 5500 5506 5512 5515 5519 5522 5527 5535 5538 5542 5549
5337 5341 5344 5348 5353 5360 5365 5370 5376 5381 5385 5391 5397 5402 5406 5412 5416 5421 5427 5432 5436 5441 5447 5450 5455 5460 5464 5468 5471 5474 5478 5483 5486 5490 5497 5498 5504 5506 5514 5519 5524 5528 5533
5323 5326 5330 5335 5340 5344 5349 5354 5359 5364 5369 5374 5379 5385 5390 5396 5401 5405 5409 5414 5418 5424 5429 5434 5439 5443 5446 5451 5454 5458 5463 5463 5467 5472 5478 5480 5484 5490 5495 5499 5507 5509 5517
5308 5311 5317 5321 5325 5329 5333 5338 5343 5348 5352 5357 5362 5367 5372 5378 5383 5387 5392 5397 5401 5406 5410 5416 5422 5426 5431 5435 5440 5442 5445 5447 5450 5456 5458 5463 5468 5472 5475 5480 5486 5492 5498
5295 5299 5304 5307 5311 5315 5318 5322 5327 5333 5336 5341 5346 5351 5356 5362 5368 5374 5377 5380 5384 5388 5393 5399 5404 5409 5414 5419 5424 5428 5433 5433 5435 5437 5442 5446 5449 5453 5458 5459 5464 5470 5479
5278 5284 5289 5293 5297 5300 5304 5307 5311 5315 5320 5323 5329 5334 5339 5345 5351 5357 5362 5365 5369 5374 5378 5383 5388 5394 5398 5401 5405 5410 5414 5415 5418 5420 5424 5427 5432 5434 5438 5441 5444 5450 5456
5259 5266 5272 5277 5281 5287 5289 5292 5295 5298 5304 5308 5313 5317 5322 5329 5336 5342 5347 5349 5353 5357 5362 5366 5371 5375 5379 5384 5388 5392 5394 5394 5397 5402 5407 5412 5414 5416 5417 5422 5428 5432 5439
5243 5248 5255 5262 5267 5270 5273 5277 5281 5283 5288 5292 5297 5302 5306 5312 5319 5325 5329 5331 5335 5340 5345 5349 5354 5358 5363 5370 5376 5374 5376 5378 5382 5387 5391 5394 5396 5399 5400 5405 5407 5412 5423
5231 5237 5243 5249 5254 5257 5261 5265 5268 5271 5276 5280 5283 5287 5293 5296 5303 5309 5313 5313 5315 5323 5329 5333 5337 5343 5347 5352 5357 5356 5360 5363 5367 5370 5373 5374 5377 5380 5383 5385 5389 5395 5398
5218 5224 5230 5236 5242 5247 5250 5252 5255 5259 5263 5265 5270 5275 5278 5282 5286 5293 5299 5298 5299 5304 5310 5315 5320 5325 5330 5335 5341 5343 5346 5349 5352 5353 5356 5359 5363 5366 5367 5370 5373 5376 5380
5206 5209 5215 5220 5227 5234 5235 5240 5242 5246 5250 5253 5257 5261 5265 5268 5273 5278 5284 5289 5290 5289 5290 5297 5303 5309 5315 5320 5323 5328 5329 5332 5335 5338 5342 5346 5348 5350 5352 5357 5360 5364 5368
5193 5197 5201 5205 5211 5217 5221 5224 5228 5232 5237 5240 5245 5250 5254 5256 5260 5267 5271 5275 5279 5276 5279 5284 5288 5292 5296 5299 5306 5309 5310 5313 5318 5322 5326 5329 5330 5334 5339 5345 5349 5354 5359
5179 5184 5189 5194 5198 5202 5209 5217 5216 5221 5223 5228 5233 5240 5242 5245 5249 5252 5256 5260 5264 5264 5265 5266 5271 5276 5279 5282 5285 5288 5291 5297 5301 5303 5307 5311 5317 5324 5328 5331 5337 5342 5348
5167 5172 5178 5184 5187 5193 5198 5203 5204 5210 5215 5220 5225 5228 5230 5234 5240 5242 5245 5244 5244 5248 5247 5248 5250 5253 5255 5259 5265 5271 5276 5280 5283 5285 5292 5298 5304 5310 5313 5318 5324 5329 5334
5156 5161 5165 5171 5175 5182 5188 5196 5202 5203 5204 5210 5214 5216 5220 5225 5230 5234 5235 5233 5235 5238 5232 5228 5229 5231 5237 5241 5247 5253 5259 5267 5269 5273 5277 5280 5286 5292 5297 5304 5307 5313 5320
5144 5148 5152 5158 5162 5167 5174 5182 5190 5197 5201 5202 5204 5207 5210 5212 5218 5221 5224 5220 5221 5224 5219 5219 5218 5218 5224 5228 5233 5237 5243 5250 5256 5260 5262 5267 5271 5275 5282 5286 5292 5298 5305
5132 5139 5144 5147 5152 5159 5164 5172 5180 5187 5190 5195 5198 5201 5201 5202 5203 5205 5204 5203 5201 5205 5204 5206 5207 5209 5212 5216 5220 5224 5229 5237 5243 5247 5250 5255 5258 5260 5270 5273 5278 5282 5290
5123 5128 5134 5139 5144 5151 5158 5165 5171 5178 5182 5184 5186 5189 5193 5192 5191 5187 5185 5182 5181 5184 5188 5191 5195 5198 5201 5205 5209 5213 5216 5222 5230 5233 5240 5243 5248 5249 5259 5263 5268 5278 5286
5115 5122 5130 5135 5140 5146 5152 5159 5164 5169 5171 5172 5174 5176 5179 5179 5178 5172 5167 5164 5163 5164 5169 5175 5180 5184 5188 5191 5196 5201 5205 5211 5216 5221 5228 5232 5237 5240 5248 5254 5261 5267 5274
5107 5112 5120 5125 5129 5138 5145 5151 5157 5160 5162 5163 5164 5164 5166 5167 5160 5155 5149 5147 5147 5149 5151 5157 5163 5169 5174 5178 5182 5186 5190 5197 5204 5209 5216 5222 5227 5232 5240 5246 5251 5259 5263
5096 5102 5109 5116 5125 5131 5134 5138 5143 5148 5151 5153 5152 5153 5157 5151 5145 5138 5134 5133 5135 5136 5139 5143 5149 5155 5160 5165 5170 5174 5178 5184 5192 5199 5206 5212 5216 5222 5230 5235 5242 5248 5253
5086 5091 5098 5106 5115 5122 5125 5126 5130 5134 5138 5139 5140 5141 5143 5140 5133 5128 5126 5126 5127 5128 5130 5132 5137 5142 5147 5153 5159 5164 5167 5174 5182 5188 5195 5202 5206 5211 5219 5225 5231 5235 5242
5073 5078 5084 5093 5100 5107 5110 5113 5117 5122 5125 5127 5128 5128 5127 5125 5123 5121 5119 5120 5120 5120 5122 5124 5127 5133 5137 5143 5148 5154 5160 5167 5174 5181 5189 5192 5195 5201 5208 5214 5219 5223 5228
5058 5063 5069 5076 5084 5091 5097 5099 5102 5106 5111 5115 5116 5116 5116 5114 5113 5112 5112 5112 5113 5113 5115 5117 5120 5125 5130 5134 5140 5146 5153 5160 5169 5177 5183 5182 5184 5192 5198 5201 5206 5211 5217
5046 5049 5053 5059 5066 5073 5078 5082 5085 5091 5097 5101 5104 5105 5106 5105 5103 5103 5102 5103 5104 5106 5108 5111 5114 5118 5123 5129 5134 5140 5147 5154 5160 5167 5172 5172 5177 5182 5186 5190 5193 5199 5204